Humboldt County, CA Past Weather

Last 30 Days

Or want past 30 days - how about since 2011?
Get our app on Google Play
High: 64ºf @12:51 AM    Low: 61ºf @1:51 AM     Approx. Precipitation / Rain Total: in.
Time (PDT)Temp. (ºf)Humidity (%)Dew Point (ºf)Barometer (inHG)Wind Speed (mph)Wind DirectionWind Gust (mph)1hr. Precip / Rain Total (in.)Snow Depth
1:51 AM617452.65-0.87nnw3.48--
12:51 AM647054.01-1.74nnw4.34--
High: 104ºf @3:51 PM    Low: 52ºf @5:51 AM     Approx. Precipitation / Rain Total: in.
Time (PDT)Temp. (ºf)Humidity (%)Dew Point (ºf)Barometer (inHG)Wind Speed (mph)Wind DirectionWind Gust (mph)1hr. Precip / Rain Total (in.)Snow Depth
11:51 PM666553.89-2.61n5.21--
10:51 PM696054.53-2.61nne6.08--
9:51 PM745355.77-1.74nne4.34--
8:51 PM794555.82-1.74ene6.95--
7:51 PM853655.02-2.61ene7.82--
6:51 PM922854.17-1.74ene6.95--
5:51 PM992253.44---5.21--
4:51 PM1031749.7-1.74n5.21--
3:51 PM1041852.04-2.61nne6.95--
2:51 PM1031851.24-1.74nne5.21--
1:51 PM992253.44-1.74n5.21--
12:51 PM932955.99-2.61ne6.08--
11:51 AM873858.28-1.74ssw6.08--
10:51 AM794857.61-2.61se6.08--
9:51 AM725755.92-2.61sse4.34--
8:51 AM666553.89-1.74s3.48--
7:51 AM617452.65-0.87se3.48--
6:51 AM549051.13-1.74n3.48--
5:51 AM529249.75-1.74n4.34--
4:51 AM548950.83-0.87n4.34--
3:51 AM558650.89-2.61n4.34--
2:51 AM578251.56-1.74n3.48--
1:51 AM597952.49-1.74nnw3.48--
12:51 AM607652.41-1.74nne4.34--
High: 100ºf @2:51 PM    Low: 57ºf @4:51 AM     Approx. Precipitation / Rain Total: in.
Time (PDT)Temp. (ºf)Humidity (%)Dew Point (ºf)Barometer (inHG)Wind Speed (mph)Wind DirectionWind Gust (mph)1hr. Precip / Rain Total (in.)Snow Depth
11:51 PM627252.87-2.61n4.34--
10:51 PM656854.17-1.74ne4.34--
9:51 PM696255.43-1.74ne6.08--
8:51 PM745456.28-2.61ene6.08--
7:51 PM794757.02-1.74ene7.82--
6:51 PM853856.51-1.74ene8.69--
5:51 PM913156.12-2.61ene10.43--
4:51 PM952755.72-2.61ene8.69--
3:51 PM992556.96-2.61ne12.17--
2:51 PM1002557.79-1.74ne6.95--
1:51 PM972757.41-1.74ene8.69--
12:51 PM943057.79-1.74ne5.21--
11:51 AM893557.75-0.87nne5.21--
10:51 AM824659.15-1.74ese6.08--
9:51 AM775157.47-0.87ene4.34--
8:51 AM706256.37-1.74sse3.48--
7:51 AM657054.97-0.87ese2.61--
6:51 AM588653.83-0.87n2.61--
5:51 AM578652.85-1.74-2.61--
4:51 AM578552.53-2.61nnw4.34--
3:51 AM598153.17-1.74n3.48--
2:51 AM607853.12-1.74n3.48--
1:51 AM617653.38-2.61nnw4.34--
12:51 AM627453.61-0.87n3.48--
High: 96ºf @2:51 PM    Low: 63ºf @6:51 AM     Approx. Precipitation / Rain Total: in.
Time (PDT)Temp. (ºf)Humidity (%)Dew Point (ºf)Barometer (inHG)Wind Speed (mph)Wind DirectionWind Gust (mph)1hr. Precip / Rain Total (in.)Snow Depth
11:51 PM646953.62-2.61n6.08--
10:51 PM656653.36-1.74nnw4.34--
9:51 PM686154.04-0.87ene4.34--
8:51 PM735555.86-1.74e5.21--
7:51 PM774956.36-0.87e6.95--
6:51 PM834257.51-2.61e6.08--
5:51 PM873757.54-1.74e8.69--
4:51 PM913357.86-1.74ne9.56--
3:51 PM933056.93-3.48ne9.56--
2:51 PM963059.5-2.61ne8.69--
1:51 PM943158.7-2.61ne6.95--
12:51 PM923459.56-2.61n8.69--
11:51 AM893860.05-1.74ene6.08--
10:51 AM834458.81-1.74n5.21--
9:51 AM785359.46-1.74nne4.34--
8:51 AM726157.8-1.74n5.21--
7:51 AM687057.84-0.87n2.61--
6:51 AM638056.73-1.74n4.34--
5:51 AM637956.38-1.74n3.48--
4:51 AM637956.38-1.74n2.61--
3:51 AM657456.5-1.74nnw3.48--
2:51 AM667156.32---3.48--
1:51 AM686756.62-1.74nne2.61--
12:51 AM715955.94-1.74nnw4.34--
High: 104ºf @3:51 PM    Low: 64ºf @5:51 AM     Approx. Precipitation / Rain Total: in.
Time (PDT)Temp. (ºf)Humidity (%)Dew Point (ºf)Barometer (inHG)Wind Speed (mph)Wind DirectionWind Gust (mph)1hr. Precip / Rain Total (in.)Snow Depth
11:51 PM735455.36-2.61n4.34--
10:51 PM755155.63-0.87ne6.08--
9:51 PM794455.2-1.74ene6.08--
8:51 PM824055.27-0.87nne6.08--
7:51 PM873354.38-1.74ene6.95--
6:51 PM933056.93-0.87se6.08--
5:51 PM982758.26-0.87ne7.82--
4:51 PM1012356.31-0.87nnw6.08--
3:51 PM1042257.56-0.87ene11.3--
2:51 PM1032155.45-1.74ne6.95--
1:51 PM1002254.26-2.61ne6.95--
12:51 PM982657.21-2.61ene6.95--
11:51 AM933157.84-0.87n6.08--
10:51 AM873757.54-1.74sse5.21--
9:51 AM814758.84-1.74sse4.34--
8:51 AM755658.22-1.74sse3.48--
7:51 AM706356.81-0.87e2.61--
6:51 AM657356.13-0.87n3.48--
5:51 AM647455.54-0.87nnw2.61--
4:51 AM657054.97-0.87n2.61--
3:51 AM676755.67-1.74nnw4.34--
2:51 AM696355.87-0.87n5.21--
1:51 AM725655.43-1.74n3.48--
12:51 AM735254.32-1.74n4.34--
High: 107ºf @3:51 PM    Low: 64ºf @5:51 AM     Approx. Precipitation / Rain Total: in.
Time (PDT)Temp. (ºf)Humidity (%)Dew Point (ºf)Barometer (inHG)Wind Speed (mph)Wind DirectionWind Gust (mph)1hr. Precip / Rain Total (in.)Snow Depth
11:51 PM774554.01-1.74n3.48--
10:51 PM804053.48-1.74nne3.48--
9:51 PM823853.86-1.74nne6.08--
8:51 PM863050.92-1.74ne6.08--
7:51 PM922247.66-1.74ne3.48--
6:51 PM971947.85---4.34--
5:51 PM1021748.9-0.87nne6.08--
4:51 PM1051751.29-1.74ne6.08--
3:51 PM1071549.5-1.74ne6.95--
2:51 PM1071549.5-1.74nne7.82--
1:51 PM1022053.29-1.74ne7.82--
12:51 PM992152.17-2.61n6.08--
11:51 AM952654.68-0.87ene5.21--
10:51 AM873253.54-2.61sse5.21--
9:51 AM824256.61-2.61s4.34--
8:51 AM765156.55-0.87ssw3.48--
7:51 AM715654.5---2.61--
6:51 AM656753.77---2.61--
5:51 AM646953.62-0.87n2.61--
4:51 AM656251.66---1.74--
3:51 AM676052.65---2.61--
2:51 AM695954.06-0.87n2.61--
1:51 AM715352.99-0.87n4.34--
12:51 AM735354.84-0.87nne2.61--
High: 110ºf @3:51 PM    Low: 67ºf @5:51 AM     Approx. Precipitation / Rain Total: in.
Time (PDT)Temp. (ºf)Humidity (%)Dew Point (ºf)Barometer (inHG)Wind Speed (mph)Wind DirectionWind Gust (mph)1hr. Precip / Rain Total (in.)Snow Depth
11:51 PM754954.53-1.74n3.48--
10:51 PM774956.36-2.61ne5.21--
9:51 PM813953.68-0.87n4.34--
8:51 PM843553.37-0.87ene5.21--
7:51 PM892952.57-0.87se6.95--
6:51 PM952452.49-1.74e6.08--
5:51 PM1021951.9-1.74e7.82--
4:51 PM1061548.71-0.87nne6.95--
3:51 PM1101245.88-0.87ene6.95--
2:51 PM1081346.46-2.61nne7.82--
1:51 PM1061446.88-1.74ne6.08--
12:51 PM1021850.43-1.74nne5.21--
11:51 AM972555.28-0.87e4.34--
10:51 AM903054.36-2.61sse6.08--
9:51 AM833955.46-1.74sse4.34--
8:51 AM794153.26---2.61--
7:51 AM745054.16---2.61--
6:51 AM685852.66---2.61--
5:51 AM675650.78-0.87w2.61--
4:51 AM695451.65------
3:51 AM714950.86---2.61--
2:51 AM724851.22---2.61--
1:51 AM744551.29---1.74--
12:51 AM774453.4---4.34--
High: 113ºf @3:51 PM    Low: 65ºf @5:51 AM     Approx. Precipitation / Rain Total: in.
Time (PDT)Temp. (ºf)Humidity (%)Dew Point (ºf)Barometer (inHG)Wind Speed (mph)Wind DirectionWind Gust (mph)1hr. Precip / Rain Total (in.)Snow Depth
11:51 PM813752.25-1.74n6.95--
10:51 PM833653.26-3.48n6.95--
9:51 PM863454.33-3.48n6.95--
8:51 PM922753.18-1.74nnw5.21--
7:51 PM962048.4---3.48--
6:51 PM1021748.9---4.34--
5:51 PM1081244.35-0.87ne4.34--
4:51 PM112939.88-0.87n8.69--
3:51 PM1131145.85-1.74ene8.69--
2:51 PM1111552.63-2.61ene7.82--
1:51 PM1081753.68-2.61se5.21--
12:51 PM1032256.73-2.61sse5.21--
11:51 AM952856.73-2.61sse6.08--
10:51 AM893255.27-1.74s4.34--
9:51 AM833955.46-0.87s4.34--
8:51 AM774654.61---2.61--
7:51 AM725353.92---1.74--
6:51 AM666252.6------
5:51 AM655950.32------
4:51 AM675650.78---1.74--
3:51 AM705050.49---3.48--
2:51 AM715051.41-0.87nw1.74--
1:51 AM735053.25---4.34--
12:51 AM754853.96-1.74nne5.21--
High: 109ºf @3:51 PM    Low: 65ºf @5:51 AM     Approx. Precipitation / Rain Total: in.
Time (PDT)Temp. (ºf)Humidity (%)Dew Point (ºf)Barometer (inHG)Wind Speed (mph)Wind DirectionWind Gust (mph)1hr. Precip / Rain Total (in.)Snow Depth
11:51 PM774654.61-1.74n6.08--
10:51 PM794354.57-2.61n6.08--
9:51 PM834056.16-2.61nnw6.95--
8:51 PM882749.79-0.87ene3.48--
7:51 PM912651.31-0.87ssw5.21--
6:51 PM962352.17-1.74nne8.69--
5:51 PM1012255.09-1.74ne9.56--
4:51 PM1061853.65-1.74nw9.56--
3:51 PM1091347.23-1.74ene7.82--
2:51 PM1081448.43-2.61ne6.08--
1:51 PM1041953.51-2.61nne6.95--
12:51 PM1002254.26-1.74nnw5.21--
11:51 AM952856.73-1.74sse5.21--
10:51 AM873556-2.61sse5.21--
9:51 AM804355.47-2.61sse4.34--
8:51 AM764955.44-0.87ssw3.48--
7:51 AM715554.01---1.74--
6:51 AM666353.04------
5:51 AM656352.09------
4:51 AM666252.6------
3:51 AM685852.66---3.48--
2:51 AM715252.48-0.87n2.61--
1:51 AM715252.48---3.48--
12:51 AM744651.89-1.74nnw4.34--
High: 108ºf @3:51 PM    Low: 60ºf @5:51 AM     Approx. Precipitation / Rain Total: in.
Time (PDT)Temp. (ºf)Humidity (%)Dew Point (ºf)Barometer (inHG)Wind Speed (mph)Wind DirectionWind Gust (mph)1hr. Precip / Rain Total (in.)Snow Depth
11:51 PM774352.77-2.61nne6.08--
10:51 PM794052.59-2.61nne6.08--
9:51 PM833653.26-2.61n6.08--
8:51 PM892447.48-1.74nne4.34--
7:51 PM922652.15---3.48--
6:51 PM971744.9-0.87n3.48--
5:51 PM1001645.7---4.34--
4:51 PM1051446.1---5.21--
3:51 PM1081346.46-0.87ssw6.08--
2:51 PM1071752.88-0.87ne6.08--
1:51 PM1041852.04-1.74e6.08--
12:51 PM992253.44-1.74ene5.21--
10:51 AM853655.02-2.61sse5.21--
9:51 AM804355.47-0.87ssw4.34--
8:51 AM725454.43-1.74s3.48--
7:51 AM696154.98---1.74--
6:51 AM637354.2------
5:51 AM607552.05------
4:51 AM617352.28------
3:51 AM646853.22---1.74--
2:51 AM656251.66---1.74--
1:51 AM686154.04---2.61--
12:51 AM696154.98-0.87nne3.48--
High: 99ºf @3:51 PM    Low: 52ºf @5:51 AM     Approx. Precipitation / Rain Total: in.
Time (PDT)Temp. (ºf)Humidity (%)Dew Point (ºf)Barometer (inHG)Wind Speed (mph)Wind DirectionWind Gust (mph)1hr. Precip / Rain Total (in.)Snow Depth
11:51 PM715754.99-2.61ne4.34--
10:51 PM745255.24-1.74nne4.34--
9:51 PM774554.01-2.61n3.48--
8:51 PM823450.83-1.74nne6.08--
7:51 PM862950.01---6.08--
6:51 PM902751.49---4.34--
5:51 PM952250.14-0.87n6.95--
4:51 PM981948.66-1.74ne6.08--
3:51 PM992050.85-2.61nne7.82--
2:51 PM982050.03-2.61n7.82--
1:51 PM962250.96-2.61ene6.08--
12:51 PM912752.33-1.74ne7.82--
11:51 AM853352.64-0.87nne6.95--
10:51 AM774352.77-2.61se6.08--
9:51 AM715151.95-1.74nnw4.34--
8:51 AM646652.41-1.74sse4.34--
7:51 AM607451.69-0.87n3.48--
6:51 AM558751.2-0.87nne2.61--
5:51 AM529049.16-0.87nnw2.61--
4:51 AM529049.16---3.48--
3:51 AM538648.92-0.87n2.61--
2:51 AM548449.27-0.87n3.48--
1:51 AM558048.94-1.74n3.48--
12:51 AM577649.51-1.74n3.48--
High: 89ºf @3:51 PM    Low: 52ºf @4:51 AM     Approx. Precipitation / Rain Total: in.
Time (PDT)Temp. (ºf)Humidity (%)Dew Point (ºf)Barometer (inHG)Wind Speed (mph)Wind DirectionWind Gust (mph)1hr. Precip / Rain Total (in.)Snow Depth
11:51 PM587550.12---4.34--
10:51 PM616850.36-2.61e6.08--
9:51 PM656251.66-1.74ene4.34--
8:51 PM695451.65-0.87se6.95--
7:51 PM754753.38-0.87se4.34--
6:51 PM794253.92-1.74e6.95--
5:51 PM833854.74-1.74nne10.43--
4:51 PM863655.9-2.61ene9.56--
3:51 PM893557.75-2.61ne9.56--
2:51 PM893658.54-1.74e10.43--
1:51 PM893557.75-2.61ne8.69--
12:51 PM853957.23-2.61ne9.56--
11:51 AM814557.63-1.74ene6.08--
10:51 AM745255.24-1.74n6.08--
9:51 AM676554.84-3.48sse5.21--
8:51 AM617653.38-2.61sse6.08--
7:51 AM559152.42-0.87ene3.48--
6:51 AM539651.89-0.87ene2.61--
5:51 AM539651.89-0.87nnw2.61--
4:51 AM529550.61---1.74--
3:51 AM539551.61-0.87nne1.74--
2:51 AM539351.03---2.61--
1:51 AM549251.73---2.61--
12:51 AM568952.8-0.87ene3.48--
High: 85ºf @3:51 PM    Low: 52ºf @5:51 AM     Approx. Precipitation / Rain Total: in.
Time (PDT)Temp. (ºf)Humidity (%)Dew Point (ºf)Barometer (inHG)Wind Speed (mph)Wind DirectionWind Gust (mph)1hr. Precip / Rain Total (in.)Snow Depth
11:51 PM588252.53-0.87ene5.21--
10:51 PM617553.02-0.87ene5.21--
9:51 PM656753.77---3.48--
8:51 PM696054.53-0.87se6.95--
7:51 PM725554.94-0.87ese9.56--
6:51 PM765056-1.74e7.82--
5:51 PM794555.82-1.74sse7.82--
4:51 PM834156.84-1.74sse8.69--
3:51 PM854158.63-2.61e6.95--
2:51 PM854057.94-2.61e9.56--
1:51 PM844258.41-1.74ne9.56--
12:51 PM834358.17-2.61e7.82--
11:51 AM794857.61-2.61ese7.82--
10:51 AM745355.77-1.74nne6.95--
9:51 AM696154.98-0.87se4.34--
8:51 AM637153.44-1.74sse3.48--
7:51 AM607752.77-1.74sse3.48--
6:51 AM568752.18---2.61--
5:51 AM529450.33---2.61--
4:51 AM539351.03-2.61n4.34--
3:51 AM549251.73-0.87nne3.48--
2:51 AM559152.42-1.74n3.48--
1:51 AM569053.11-0.87n2.61--
12:51 AM578652.85-0.87n4.34--
High: 83ºf @3:51 PM    Low: 55ºf @5:51 AM     Approx. Precipitation / Rain Total: in.
Time (PDT)Temp. (ºf)Humidity (%)Dew Point (ºf)Barometer (inHG)Wind Speed (mph)Wind DirectionWind Gust (mph)1hr. Precip / Rain Total (in.)Snow Depth
11:51 PM588453.19---2.61--
10:51 PM608053.81-0.87ene5.21--
9:51 PM627252.87-0.87se5.21--
8:51 PM666453.47-0.87se5.21--
7:51 PM686053.59-0.87ese6.95--
6:51 PM725454.43-1.74ne6.95--
5:51 PM765156.55-1.74se10.43--
4:51 PM804657.34-1.74ese7.82--
3:51 PM834458.81-2.61e8.69--
2:51 PM824659.15-1.74ene7.82--
1:51 PM824558.53-1.74ene9.56--
12:51 PM814457.01-1.74ene7.82--
11:51 AM784856.7-1.74ene7.82--
10:51 AM735354.84-3.48e7.82--
9:51 AM705653.57-0.87nnw6.08--
8:51 AM656552.94-0.87n5.21--
7:51 AM597551.08-0.87nne6.08--
6:51 AM577649.51-1.74nw4.34--
5:51 AM558149.28-1.74ne3.48--
4:51 AM567949.58-1.74ne4.34--
3:51 AM587148.65-2.61nne4.34--
2:51 AM606749.01-0.87nne6.95--
1:51 AM616649.56-2.61nnw6.08--
12:51 AM626550.1-1.74n8.69--
High: 87ºf @1:51 PM    Low: 51ºf @5:51 AM     Approx. Precipitation / Rain Total: in.
Time (PDT)Temp. (ºf)Humidity (%)Dew Point (ºf)Barometer (inHG)Wind Speed (mph)Wind DirectionWind Gust (mph)1hr. Precip / Rain Total (in.)Snow Depth
11:51 PM646150.28-1.74n6.08--
10:51 PM675349.3-0.87nne4.34--
9:51 PM704849.4-0.87ne3.48--
8:51 PM724448.88-1.74ssw6.08--
7:51 PM754049.02-1.74s6.08--
6:51 PM783850.31-1.74sse7.82--
5:51 PM803650.62-1.74se10.43--
4:51 PM823652.38-2.61ne8.69--
3:51 PM813953.68-2.61ese11.3--
2:51 PM813953.68-2.61se11.3--
1:51 PM873354.38-2.61e11.3--
12:51 PM843754.89-2.61ne12.17--
11:51 AM794253.92-1.74ene6.95--
10:51 AM745054.16-1.74se6.08--
9:51 AM676052.65-0.87sse5.21--
8:51 AM626750.91-1.74ese4.34--
7:51 AM587650.48-1.74nne4.34--
6:51 AM548950.83-0.87ene2.61--
5:51 AM519148.47-1.74n3.48--
4:51 AM538849.54-0.87wnw1.74--
3:51 AM538849.54-0.87nne2.61--
2:51 AM548348.95-0.87nnw3.48--
1:51 AM558349.93---2.61--
12:51 AM567949.58-1.74n3.48--
High: 82ºf @2:51 PM    Low: 54ºf @4:51 AM     Approx. Precipitation / Rain Total: in.
Time (PDT)Temp. (ºf)Humidity (%)Dew Point (ºf)Barometer (inHG)Wind Speed (mph)Wind DirectionWind Gust (mph)1hr. Precip / Rain Total (in.)Snow Depth
11:51 PM577749.86---4.34--
10:51 PM607250.94-0.87ne4.34--
9:51 PM626650.51-2.61e6.08--
8:51 PM665850.79-1.74e6.08--
7:51 PM705251.55-0.87n6.08--
6:51 PM734751.56-0.87ene9.56--
5:51 PM764452.49-1.74ene9.56--
4:51 PM804154.16-0.87n6.08--
3:51 PM814255.72-1.74e7.82--
2:51 PM824256.61-2.61e8.69--
1:51 PM814155.05-2.61ne7.82--
12:51 PM794455.2-2.61nne6.95--
11:51 AM754853.96-2.61n7.82--
10:51 AM705452.58-1.74nnw6.08--
9:51 AM656251.66-2.61sse5.21--
8:51 AM626750.91-0.87ene5.21--
7:51 AM568049.92-0.87nne2.61--
5:51 AM548348.95---4.34--
4:51 AM548348.95-0.87ne3.48--
3:51 AM558450.25---2.61--
2:51 AM558349.93---3.48--
1:51 AM558249.61-0.87n4.34--
12:51 AM558249.61-0.87ene3.48--
High: 76ºf @2:51 PM    Low: 53ºf @12:51 AM     Approx. Precipitation / Rain Total: in.
Time (PDT)Temp. (ºf)Humidity (%)Dew Point (ºf)Barometer (inHG)Wind Speed (mph)Wind DirectionWind Gust (mph)1hr. Precip / Rain Total (in.)Snow Depth
11:51 PM548649.91---2.61--
10:51 PM548449.27-0.87e4.34--
9:51 PM568049.92-0.87se7.82--
8:51 PM587349.39-1.74ese6.08--
7:51 PM626449.68-2.61e8.69--
6:51 PM665750.32-1.74ene6.95--
5:51 PM695351.15-2.61ne7.82--
4:51 PM715151.95-2.61se9.56--
3:51 PM744953.61-3.48ene9.56--
2:51 PM764754.29-0.87sse6.08--
1:51 PM754853.96-1.74e6.95--
12:51 PM744752.47-2.61n7.82--
10:51 AM685551.22-0.87ne10.43--
9:51 AM626449.68-1.74ene6.95--
8:51 AM577448.79-0.87nne4.34--
7:51 AM557948.61---3.48--
6:51 AM548248.63---2.61--
5:51 AM538347.98---1.74--
4:51 AM538247.65---3.48--
3:51 AM548248.63---3.48--
2:51 AM548148.3-0.87nne3.48--
1:51 AM548248.63-0.87ene3.48--
12:51 AM538749.23---4.34--
High: 82ºf @3:51 PM    Low: 51ºf @5:51 AM     Approx. Precipitation / Rain Total: in.
Time (PDT)Temp. (ºf)Humidity (%)Dew Point (ºf)Barometer (inHG)Wind Speed (mph)Wind DirectionWind Gust (mph)1hr. Precip / Rain Total (in.)Snow Depth
11:51 PM548449.27-1.74ene5.21--
10:51 PM567849.24-0.87s8.69--
9:51 PM587249.02-1.74e7.82--
8:51 PM616649.56-0.87ese4.34--
7:51 PM646150.28-1.74ese6.08--
6:51 PM685551.22-1.74ese6.95--
5:51 PM773547.23-0.87ne6.08--
4:51 PM803045.76-0.87ne5.21--
3:51 PM822542.68-1.74ne10.43--
2:51 PM803146.62-2.61nne9.56--
1:51 PM784051.7-2.61nne7.82--
12:51 PM744752.47-3.48nne7.82--
11:51 AM715453.5-1.74ene7.82--
10:51 AM675751.26-2.61n7.82--
9:51 AM646451.57-1.74n5.21--
8:51 AM597551.08-1.74sse4.34--
7:51 AM548449.27-0.87n5.21--
6:51 AM538949.84-0.87ene4.34--
5:51 AM519449.33-1.74e4.34--
4:51 AM519248.76-1.74ne5.21--
3:51 AM538849.54-1.74ene4.34--
2:51 AM558650.89-1.74nne4.34--
1:51 AM578151.23-2.61nne6.08--
12:51 AM607652.41-1.74nne6.08--
High: 94ºf @4:51 PM    Low: 50ºf @5:51 AM     Approx. Precipitation / Rain Total: in.
Time (PDT)Temp. (ºf)Humidity (%)Dew Point (ºf)Barometer (inHG)Wind Speed (mph)Wind DirectionWind Gust (mph)1hr. Precip / Rain Total (in.)Snow Depth
10:51 PM675952.19-0.87nne3.48--
9:51 PM724851.22-1.74ene5.21--
8:51 PM782640.32-1.74nnw6.95--
7:51 PM812339.69---2.61--
6:51 PM862141.49---3.48--
5:51 PM891839.96-1.74s4.34--
4:51 PM941843.99-0.87s5.21--
3:51 PM942249.31-2.61nne9.56--
2:51 PM932551.93-1.74e6.95--
1:51 PM903256.13-0.87ene6.08--
12:51 PM844157.73-1.74ese5.21--
11:51 AM765056-1.74sse5.21--
10:51 AM755155.63-1.74sse5.21--
9:51 AM696054.53-2.61sse4.34--
8:51 AM627152.48-0.87sse3.48--
7:51 AM597751.8-0.87se2.61--
6:51 AM538849.54---3.48--
5:51 AM509348.06-0.87nne2.61--
4:51 AM519148.47-2.61n4.34--
3:51 AM529049.16-0.87n2.61--
2:51 AM538749.23---3.48--
1:51 AM548649.91-1.74n2.61--
12:51 AM558349.93-1.74n2.61--
High: 77ºf @6:51 PM    Low: 51ºf @1:51 AM     Approx. Precipitation / Rain Total: in.
Time (PDT)Temp. (ºf)Humidity (%)Dew Point (ºf)Barometer (inHG)Wind Speed (mph)Wind DirectionWind Gust (mph)1hr. Precip / Rain Total (in.)Snow Depth
11:51 PM568150.25-0.87ne3.48--
10:51 PM597651.44-0.87ene3.48--
9:51 PM626951.71-2.61ne7.82--
8:51 PM675952.19-2.61e6.95--
7:51 PM725152.87-1.74ene7.82--
6:51 PM774352.77-2.61ene10.43--
2:51 AM528848.56---2.61--
1:51 AM519148.47-0.87ene3.48--
12:51 AM519048.17-0.87nne2.61--
High: 79ºf @1:51 PM    Low: 51ºf @3:51 AM     Approx. Precipitation / Rain Total: in.
Time (PDT)Temp. (ºf)Humidity (%)Dew Point (ºf)Barometer (inHG)Wind Speed (mph)Wind DirectionWind Gust (mph)1hr. Precip / Rain Total (in.)Snow Depth
11:51 PM528848.56-0.87ene4.34--
10:51 PM538448.3-1.74e6.08--
9:51 PM568049.92-0.87ese5.21--
8:51 PM607451.69-0.87ene7.82--
7:51 PM646752.82-1.74ene7.82--
6:51 PM686154.04-1.74ne9.56--
5:51 PM725554.94-2.61ene8.69--
4:51 PM755055.08-2.61ene10.43--
3:51 PM784856.7-3.48e10.43--
2:51 PM784756.11-3.48ene9.56--
1:51 PM794757.02-2.61nne7.82--
12:51 PM774956.36-1.74nne6.95--
11:51 AM735354.84-1.74n6.95--
10:51 AM695954.06-2.61ne6.95--
9:51 AM656452.52-2.61n7.82--
8:51 AM636751.86-0.87e4.34--
7:51 AM607351.32-0.87ne3.48--
6:51 AM548649.91-0.87nne2.61--
5:51 AM518947.87---1.74--
4:51 AM519048.17---1.74--
3:51 AM518747.27-0.87ene2.61--
2:51 AM538147.33---4.34--
1:51 AM547746.95-1.74nne2.61--
12:51 AM576946.93-0.87nnw3.48--
High: 89ºf @3:51 PM    Low: 50ºf @5:51 AM     Approx. Precipitation / Rain Total: in.
Time (PDT)Temp. (ºf)Humidity (%)Dew Point (ºf)Barometer (inHG)Wind Speed (mph)Wind DirectionWind Gust (mph)1hr. Precip / Rain Total (in.)Snow Depth
11:51 PM586747.1---2.61--
10:51 PM606146.51---3.48--
9:51 PM635446.09-0.87ne7.82--
8:51 PM674746.1-1.74e8.69--
7:51 PM714246.74-1.74e8.69--
6:51 PM773748.71-1.74e6.08--
5:51 PM813752.25-2.61e7.82--
4:51 PM853554.25-2.61ene8.69--
3:51 PM893456.94-2.61ene9.56--
2:51 PM893456.94-1.74nne7.82--
1:51 PM873656.78-2.61ene6.95--
12:51 PM834056.16-2.61ne8.69--
11:51 AM804355.47-2.61ne6.95--
10:51 AM755055.08-2.61ne5.21--
9:51 AM705553.08-0.87nnw5.21--
8:51 AM656653.36-0.87ene4.34--
7:51 AM587851.18-1.74-3.48--
6:51 AM538849.54-0.87ene3.48--
5:51 AM509348.06-1.74nne3.48--
4:51 AM529149.45---2.61--
3:51 AM529049.16-0.87n2.61--
2:51 AM548850.53-0.87n3.48--
1:51 AM558550.57-1.74n4.34--
12:51 AM578151.23-1.74nnw3.48--
High: 88ºf @3:51 PM    Low: 52ºf @3:51 AM     Approx. Precipitation / Rain Total: in.
Time (PDT)Temp. (ºf)Humidity (%)Dew Point (ºf)Barometer (inHG)Wind Speed (mph)Wind DirectionWind Gust (mph)1hr. Precip / Rain Total (in.)Snow Depth
11:51 PM578050.89-0.87nne3.48--
10:51 PM607552.05-2.61ene5.21--
9:51 PM636852.27-2.61e6.08--
8:51 PM686154.04-0.87e6.08--
7:51 PM735555.86-0.87e5.21--
6:51 PM774956.36-2.61ene8.69--
5:51 PM814356.37-2.61ene10.43--
4:51 PM853856.51-2.61ne8.69--
3:51 PM883556.88-2.61ene10.43--
2:51 PM873757.54-2.61n7.82--
1:51 PM863857.4-1.74ene7.82--
12:51 PM824256.61-1.74nne6.08--
11:51 AM754954.53-2.61nnw6.08--
10:51 AM695753.12-1.74e6.08--
9:51 AM636651.46-1.74nne6.08--
8:51 AM568150.25-0.87s4.34--
7:51 AM528848.56-0.87nnw4.34--
6:51 AM528948.86---1.74--
5:51 AM528948.86---2.61--
4:51 AM528848.56---2.61--
3:51 AM528848.56---3.48--
2:51 AM538749.23-0.87nnw3.48--
1:51 AM538648.92-0.87ne3.48--
12:51 AM548649.91-0.87nne3.48--
High: 83ºf @3:51 PM    Low: 47ºf @4:51 AM     Approx. Precipitation / Rain Total: in.
Time (PDT)Temp. (ºf)Humidity (%)Dew Point (ºf)Barometer (inHG)Wind Speed (mph)Wind DirectionWind Gust (mph)1hr. Precip / Rain Total (in.)Snow Depth
11:51 PM538749.23---4.34--
10:51 PM538849.54-1.74e6.08--
9:51 PM558349.93-1.74e6.95--
8:51 PM616950.75-1.74e7.82--
7:51 PM665951.25-2.61ene12.17--
6:51 PM735053.25-3.48ene7.82--
5:51 PM794153.26-0.87nne7.82--
4:51 PM823450.83-1.74ne8.69--
3:51 PM833350.9-2.61e8.69--
2:51 PM833451.71-2.61ne7.82--
1:51 PM793750.48-2.61ne6.95--
12:51 PM754250.33-2.61ne7.82--
11:51 AM714850.31-2.61ne6.95--
10:51 AM655849.86-1.74ese5.21--
9:51 AM616247.88-1.74se4.34--
8:51 AM567347.47-0.87nnw4.34--
7:51 AM518646.96---3.48--
6:51 AM489346.07---1.74--
5:51 AM479545.64---1.74--
4:51 AM479445.36---1.74--
3:51 AM489346.07---4.34--
2:51 AM499146.49-1.74ene4.34--
1:51 AM518646.96-0.87ne4.34--
12:51 AM537946.66-0.87n3.48--
High: 86ºf @3:51 PM    Low: 46ºf @5:51 AM     Approx. Precipitation / Rain Total: in.
Time (PDT)Temp. (ºf)Humidity (%)Dew Point (ºf)Barometer (inHG)Wind Speed (mph)Wind DirectionWind Gust (mph)1hr. Precip / Rain Total (in.)Snow Depth
11:51 PM567247.1-0.87nne3.48--
10:51 PM596145.57-1.74ne5.21--
9:51 PM615946.57-1.74e5.21--
8:51 PM664946.28-0.87ne6.08--
7:51 PM713743.4-0.87ssw6.08--
6:51 PM763243.99-0.87se4.34--
5:51 PM822643.71-0.87se6.08--
4:51 PM852343.02-0.87ne7.82--
3:51 PM862040.23-1.74ne6.95--
2:51 PM852444.14-2.61nne6.08--
1:51 PM822542.68-1.74n6.08--
12:51 PM782842.24-1.74n5.21--
11:51 AM753948.35-1.74se5.21--
10:51 AM694345.56-0.87nne5.21--
9:51 AM645044.98-0.87s5.21--
8:51 AM586144.63-1.74s4.34--
7:51 AM537143.85-1.74s2.61--
6:51 AM498043.1---2.61--
5:51 AM468441.44---1.74--
4:51 AM478241.79---2.61--
3:51 AM488142.45---1.74--
2:51 AM497942.77---3.48--
1:51 AM517643.7-1.74ne2.61--
12:51 AM527142.89-1.74nne2.61--
High: 71ºf @6:51 PM    Low: 54ºf @11:51 PM     Approx. Precipitation / Rain Total: in.
Time (PDT)Temp. (ºf)Humidity (%)Dew Point (ºf)Barometer (inHG)Wind Speed (mph)Wind DirectionWind Gust (mph)1hr. Precip / Rain Total (in.)Snow Depth
11:51 PM546642.9---3.48--
10:51 PM566042.31-1.74ene7.82--
9:51 PM595140.9-0.87e5.21--
8:51 PM634541.32-0.87e6.08--
7:51 PM674142.52---4.34--
6:51 PM713743.4-0.87e7.82--
Past Weather Disclaimer Note regarding "Approx. Precipitation / Rain Total"

Currently

Overcast 53°F
29.91in
Barometer
93%
Humidity
Southeast 9.2mph
Wind
Overcast

More Local Information

Bookmark and Share

Download our App

Get the LocalConditions.com App on Google Play